| time (UTC) | temp C | wind direction | speed KPH | gust KPH | rain 1hr cm | rain 24hr cm | rain mn cm | humidity % | barometer mb |
| 20260504214525 | 23 | 67 | 4.8 | 17.7 | 0.00 | 0.08 | 0.00 | 29 | 1006.3 |
| 20260504213017 | 23 | 4 | 11.3 | 24.1 | 0.00 | 0.08 | 0.00 | 30 | 1006.5 |
| 20260504211526 | 23 | 330 | 9.7 | 20.9 | 0.00 | 0.08 | 0.00 | 29 | 1006.6 |
| 20260504210016 | 23 | 314 | 9.7 | 19.3 | 0.00 | 0.08 | 0.00 | 29 | 1006.6 |
| 20260504204517 | 23 | 49 | 8.0 | 19.3 | 0.00 | 0.08 | 0.00 | 31 | 1006.7 |
| 20260504203013 | 23 | 327 | 11.3 | 20.9 | 0.00 | 0.08 | 0.00 | 30 | 1006.6 |
| 20260504201511 | 22 | 36 | 12.9 | 24.1 | 0.00 | 0.08 | 0.00 | 32 | 1006.8 |
| 20260504200009 | 22 | 46 | 11.3 | 24.1 | 0.00 | 0.08 | 0.00 | 33 | 1006.8 |
| 20260504194508 | 22 | 339 | 9.7 | 20.9 | 0.00 | 0.08 | 0.00 | 34 | 1006.8 |
| 20260504193005 | 22 | 335 | 8.0 | 20.9 | 0.00 | 0.08 | 0.00 | 35 | 1006.8 |
| 20260504191505 | 22 | 54 | 9.7 | 20.9 | 0.00 | 0.08 | 0.00 | 35 | 1007.0 |
| 20260504190003 | 22 | 53 | 8.0 | 22.5 | 0.00 | 0.08 | 0.00 | 37 | 1007.1 |
| 20260504184626 | 21 | 34 | 11.3 | 24.1 | 0.00 | 0.08 | 0.00 | 37 | 1007.2 |
| 20260504183057 | 21 | 25 | 11.3 | 19.3 | 0.00 | 0.08 | 0.00 | 38 | 1007.3 |
| 20260504181557 | 21 | 1 | 12.9 | 24.1 | 0.00 | 0.08 | 0.00 | 38 | 1007.3 |
| 20260504180055 | 21 | 18 | 11.3 | 20.9 | 0.00 | 0.08 | 0.00 | 37 | 1007.3 |
| 20260504174550 | 20 | 39 | 9.7 | 22.5 | 0.00 | 0.08 | 0.00 | 41 | 1007.5 |
| 20260504173048 | 20 | 31 | 9.7 | 22.5 | 0.00 | 0.08 | 0.00 | 42 | 1007.5 |
| 20260504171547 | 19 | 350 | 12.9 | 25.7 | 0.00 | 0.08 | 0.00 | 42 | 1007.6 |
| 20260504120115 | 10 | 91 | 0.0 | 8.0 | 0.00 | 0.08 | 0.00 | 73 | 1006.9 |
| 20260504110104 | 10 | 113 | 1.6 | 4.8 | 0.00 | 0.08 | 0.00 | 75 | 1007.0 |
| 20260504081537 | 11 | 338 | 0.0 | 0.0 | 0.00 | 0.08 | 0.00 | 73 | 1006.5 |
| 20260504050016 | 17 | 96 | 0.0 | 0.0 | 0.00 | 0.08 | 0.08 | 48 | 1006.8 |
| 20260504044514 | 18 | 96 | 0.0 | 3.2 | 0.08 | 0.08 | 0.08 | 44 | 1006.8 |
| 20260504043014 | 18 | 113 | 1.6 | 3.2 | 0.08 | 0.08 | 0.08 | 41 | 1006.8 |
| 20260504041514 | 18 | 114 | 3.2 | 4.8 | 0.08 | 0.08 | 0.08 | 40 | 1006.8 |
| 20260504040014 | 18 | 77 | 0.0 | 0.0 | 0.08 | 0.08 | 0.08 | 45 | 1006.7 |
| 20260504034520 | 19 | 77 | 0.0 | 0.0 | 0.00 | 0.00 | 0.00 | 41 | 1006.6 |
| 20260504033022 | 20 | 250 | 0.0 | 0.0 | 0.00 | 0.00 | 0.00 | 35 | 1006.5 |
| 20260504031512 | 22 | 250 | 0.0 | 1.6 | 0.00 | 0.00 | 0.00 | 31 | 1006.4 |
| 20260504030011 | 23 | 250 | 0.0 | 1.6 | 0.00 | 0.00 | 0.00 | 29 | 1006.4 |
| 20260504024533 | 25 | 255 | 0.0 | 4.8 | 0.00 | 0.00 | 0.00 | 27 | 1006.3 |
| 20260504023009 | 25 | 274 | 3.2 | 9.7 | 0.00 | 0.00 | 0.00 | 25 | 1006.4 |
| 20260504021508 | 25 | 281 | 0.0 | 9.7 | 0.00 | 0.00 | 0.00 | 25 | 1006.5 |
| 20260504020007 | 25 | 259 | 3.2 | 14.5 | 0.00 | 0.00 | 0.00 | 25 | 1006.6 |
| 20260504014506 | 25 | 236 | 4.8 | 12.9 | 0.00 | 0.00 | 0.00 | 24 | 1006.7 |
| 20260504013003 | 25 | 289 | 8.0 | 12.9 | 0.00 | 0.00 | 0.00 | 24 | 1006.8 |
| 20260504011503 | 25 | 283 | 6.4 | 12.9 | 0.00 | 0.00 | 0.00 | 23 | 1006.9 |
| 20260504010002 | 25 | 290 | 6.4 | 16.1 | 0.00 | 0.00 | 0.00 | 23 | 1007.0 |
| 20260504004622 | 26 | 293 | 4.8 | 14.5 | 0.00 | 0.00 | 0.00 | 22 | 1007.2 |
| 20260504003102 | 26 | 290 | 3.2 | 11.3 | 0.00 | 0.00 | 0.00 | 21 | 1007.4 |
| 20260504001601 | 26 | 251 | 4.8 | 16.1 | 0.00 | 0.00 | 0.00 | 21 | 1007.6 |
| 20260504000055 | 26 | 212 | 1.6 | 11.3 | 0.00 | 0.00 | 0.00 | 21 | 1007.7 |
| 20260503234552 | 26 | 200 | 8.0 | 17.7 | 0.00 | 0.00 | 0.00 | 19 | 1007.9 |
| 20260503233051 | 26 | 252 | 8.0 | 17.7 | 0.00 | 0.00 | 0.00 | 20 | 1008.0 |
| 20260503231553 | 26 | 142 | 8.0 | 16.1 | 0.00 | 0.00 | 0.00 | 22 | 1008.2 |
| 20260503230050 | 26 | 172 | 6.4 | 14.5 | 0.00 | 0.00 | 0.00 | 22 | 1008.5 |
| 20260503224542 | 26 | 165 | 4.8 | 16.1 | 0.00 | 0.00 | 0.00 | 21 | 1008.7 |
| 20260503223040 | 26 | 283 | 3.2 | 11.3 | 0.00 | 0.00 | 0.00 | 21 | 1009.0 |
| 20260503221539 | 26 | 201 | 8.0 | 17.7 | 0.00 | 0.00 | 0.00 | 22 | 1009.2 |
| 20260503220039 | 26 | 276 | 6.4 | 12.9 | 0.00 | 0.00 | 0.00 | 20 | 1009.4 |